EW8829 Weather Reports


Display with metric or nautical units.
time (UTC)temp
F
wind
direction
speed
MPH
gust
MPH
rain 1hr
in
rain 24hr
in
rain mn
in
humidity
%
barometer
mb
20260905230106 68 22 3.0 3.0 0.00 0.00 0.00 81 1012.3
20260905225600 68 11 2.0 2.0 0.00 0.00 0.00 81 1012.3
20260905225055 69 13 0.0 2.0 0.00 0.00 0.00 82 1012.3
20260905224555 69 12 2.0 2.0 0.00 0.00 0.00 80 1012.5
20260905224055 70 16 1.0 2.0 0.00 0.00 0.00 78 1012.4
20260905223552 70 22 2.0 2.0 0.00 0.00 0.00 79 1012.3
20260905223048 70 21 1.0 2.0 0.00 0.00 0.00 77 1012.4
20260905222548 70 16 2.0 3.0 0.00 0.00 0.00 77 1012.1
20260905222043 71 320 0.0 2.0 0.00 0.00 0.00 79 1012.2
20260905221540 71 30 0.0 2.0 0.00 0.00 0.00 75 1012.2
20260905221036 71 19 1.0 3.0 0.00 0.00 0.00 75 1012.0
20260905220531 72 15 3.0 3.0 0.00 0.00 0.00 72 1012.1
20260905220027 72 26 2.0 3.0 0.00 0.00 0.00 73 1012.2
20260905215526 73 50 0.0 2.0 0.00 0.00 0.00 70 1011.9
20260905215023 73 26 1.0 2.0 0.00 0.00 0.00 70 1011.9
20260905214518 72 10 2.0 2.0 0.00 0.00 0.00 71 1012.0
20260905214013 72 355 2.0 3.0 0.00 0.00 0.00 72 1011.8
20260905213509 72 0 2.0 3.0 0.00 0.00 0.00 73 1011.8
20260905213004 72 11 2.0 3.0 0.00 0.00 0.00 70 1011.8
20260905212459 72 17 2.0 2.0 0.00 0.00 0.00 71 1011.7
20260905211958 72 50 0.0 3.0 0.00 0.00 0.00 72 1011.8
20260905211454 73 355 2.0 2.0 0.00 0.00 0.00 75 1011.8
20260905210950 73 344 2.0 2.0 0.00 0.00 0.00 70 1011.4
20260905210445 73 18 3.0 4.0 0.00 0.00 0.00 75 1011.5
20260905205944 73 47 1.0 3.0 0.00 0.00 0.00 74 1011.5
20260905205439 72 135 3.0 5.0 0.00 0.00 0.00 74 1011.6
20260905204938 72 40 1.0 2.0 0.00 0.00 0.00 75 1011.7
20260905204434 71 15 2.0 2.0 0.00 0.00 0.00 74 1011.6
20260905203933 71 7 2.0 3.0 0.00 0.00 0.00 73 1011.4
20260905203429 72 0 3.0 3.0 0.00 0.00 0.00 71 1011.5
20260905202924 73 353 4.0 4.0 0.00 0.00 0.00 72 1011.4
20260905202419 74 34 1.0 2.0 0.00 0.00 0.00 70 1011.6
20260905201915 74 348 2.0 3.0 0.00 0.00 0.00 68 1011.4
20260905201409 75 7 2.0 4.0 0.00 0.00 0.00 66 1011.6
20260905200904 75 6 4.0 4.0 0.00 0.00 0.00 67 1011.5
20260905200400 74 41 2.0 2.0 0.00 0.00 0.00 73 1011.6
20260905195857 72 36 1.0 3.0 0.00 0.00 0.00 72 1011.6
20260905195353 72 13 1.0 2.0 0.00 0.00 0.00 73 1011.5
20260905194849 72 266 1.0 2.0 0.00 0.00 0.00 73 1011.6
20260905194348 72 20 1.0 2.0 0.00 0.00 0.00 76 1011.7
20260905193847 71 13 1.0 2.0 0.00 0.00 0.00 76 1011.6
20260905193342 72 337 2.0 3.0 0.00 0.00 0.00 73 1011.5
20260905192838 72 29 1.0 4.0 0.00 0.00 0.00 72 1011.6
20260905192334 74 106 1.0 3.0 0.00 0.00 0.00 67 1011.6
20260905191833 75 311 2.0 3.0 0.00 0.00 0.00 68 1011.4
20260905191332 74 130 3.0 7.0 0.00 0.00 0.00 68 1011.6
20260905190831 73 69 1.0 2.0 0.00 0.00 0.00 72 1011.7
20260905190325 72 18 1.0 2.0 0.00 0.00 0.00 74 1011.7
20260905185823 72 48 2.0 2.0 0.00 0.00 0.00 74 1011.6
20260905185319 72 23 3.0 4.0 0.00 0.00 0.00 73 1011.7
20260905184812 72 328 4.0 4.0 0.00 0.00 0.00 76 1011.8
20260905184311 72 312 3.0 3.0 0.00 0.00 0.00 76 1011.7
20260905183810 72 1 1.0 3.0 0.00 0.00 0.00 70 1011.6
20260905183306 72 73 2.0 2.0 0.00 0.00 0.00 71 1011.8
20260905182800 72 52 2.0 3.0 0.00 0.00 0.00 70 1011.6
20260905182300 73 26 2.0 2.0 0.00 0.00 0.00 70 1011.6
20260905181755 72 26 2.0 3.0 0.00 0.00 0.00 71 1011.6
20260905181254 72 50 2.0 4.0 0.00 0.00 0.00 71 1011.7
20260905180748 72 26 2.0 4.0 0.00 0.00 0.00 71 1011.6
20260905180243 72 10 1.0 3.0 0.00 0.00 0.00 72 1011.7
20260905175739 72 9 3.0 3.0 0.00 0.00 0.00 72 1011.6
20260905175233 72 347 2.0 3.0 0.00 0.00 0.00 72 1011.7
20260905174728 72 12 2.0 3.0 0.00 0.00 0.00 71 1011.7
20260905174224 72 31 2.0 2.0 0.00 0.00 0.00 71 1011.8
20260905173720 73 22 2.0 2.0 0.00 0.00 0.00 69 1011.6
20260905173215 73 0 0.0 2.0 0.00 0.00 0.00 68 1011.7
20260905172709 72 351 2.0 3.0 0.00 0.00 0.00 71 1011.6
20260905172203 72 323 2.0 4.0 0.00 0.00 0.00 71 1011.8
20260905171659 74 24 4.0 6.0 0.00 0.00 0.00 68 1011.7
20260905171155 74 35 1.0 3.0 0.00 0.00 0.00 66 1011.8
20260905170652 72 19 2.0 2.0 0.00 0.00 0.00 70 1012.0
20260905170147 71 16 1.0 2.0 0.00 0.00 0.00 72 1011.9
20260905165646 71 10 2.0 4.0 0.00 0.00 0.00 71 1011.8
20260905165142 73 4 2.0 2.0 0.00 0.00 0.00 69 1011.7
20260905164637 73 5 3.0 4.0 0.00 0.00 0.00 71 1012.1
20260905164136 74 17 0.0 3.0 0.00 0.00 0.00 67 1011.9
20260905163632 74 117 3.0 4.0 0.00 0.00 0.00 72 1011.9
20260905163128 73 348 2.0 2.0 0.00 0.00 0.00 71 1011.9
20260905162624 72 49 2.0 3.0 0.00 0.00 0.00 75 1012.0
20260905162123 71 22 2.0 4.0 0.00 0.00 0.00 75 1012.0
20260905161623 71 356 2.0 2.0 0.00 0.00 0.00 79 1011.9
20260905161121 70 12 2.0 2.0 0.00 0.00 0.00 74 1012.0
20260905160621 71 72 2.0 2.0 0.00 0.00 0.00 75 1012.0
20260905160115 71 32 0.0 2.0 0.00 0.00 0.00 72 1012.0
20260905155609 73 127 3.0 4.0 0.00 0.00 0.00 73 1012.0
20260905155108 71 38 2.0 2.0 0.00 0.00 0.00 74 1012.0
20260905154608 69 5 3.0 3.0 0.00 0.00 0.00 76 1012.2
20260905154104 69 350 2.0 3.0 0.00 0.00 0.00 76 1012.1
20260905153600 69 120 2.0 3.0 0.00 0.00 0.00 80 1012.1
20260905153059 70 359 3.0 3.0 0.00 0.00 0.00 76 1012.1
20260905152554 69 16 2.0 2.0 0.00 0.00 0.00 80 1012.3
20260905152049 70 71 0.0 2.0 0.00 0.00 0.00 78 1012.2
20260905151545 70 13 3.0 4.0 0.00 0.00 0.00 75 1012.0
20260905151040 71 93 1.0 3.0 0.00 0.00 0.00 76 1012.0
20260905150535 71 109 3.0 4.0 0.00 0.00 0.00 77 1012.2
20260905150033 69 76 3.0 4.0 0.00 0.00 0.00 78 1012.1
20260905145527 68 91 2.0 3.0 0.00 0.00 0.00 79 1012.4
20260905145026 69 55 0.0 3.0 0.00 0.00 0.00 78 1012.2
20260905144521 70 29 0.0 5.0 0.00 0.00 0.00 76 1012.1
20260905144020 71 3 2.0 4.0 0.00 0.00 0.00 75 1012.1
20260905143520 71 10 2.0 3.0 0.00 0.00 0.00 78 1012.3
20260905143015 69 357 2.0 4.0 0.00 0.00 0.00 79 1012.1
20260905142513 68 352 2.0 3.0 0.00 0.00 0.00 82 1012.3
20260905142009 69 2 2.0 4.0 0.00 0.00 0.00 80 1012.4
20260905141503 70 50 0.0 4.0 0.00 0.00 0.00 78 1012.2
20260905141000 69 359 3.0 4.0 0.00 0.00 0.00 79 1012.0
20260905140455 68 23 3.0 4.0 0.00 0.00 0.00 82 1012.4
20260905135953 68 42 2.0 4.0 0.00 0.00 0.00 83 1012.5
20260905135449 69 47 1.0 4.0 0.00 0.00 0.00 82 1012.1
20260905134945 69 7 2.0 3.0 0.00 0.00 0.00 81 1012.1
20260905134443 69 353 2.0 4.0 0.00 0.00 0.00 84 1012.1
20260905133942 68 4 3.0 4.0 0.00 0.00 0.00 85 1012.0
20260905133438 69 358 2.0 5.0 0.00 0.00 0.00 86 1012.3
20260905132937 68 70 1.0 4.0 0.00 0.00 0.00 88 1012.0
20260905132432 66 4 1.0 4.0 0.00 0.00 0.00 92 1012.1
20260905131928 66 97 2.0 3.0 0.00 0.00 0.00 95 1012.1
20260905131424 64 33 2.0 2.0 0.00 0.00 0.00 99 1011.9
20260905130924 62 206 0.0 1.0 0.00 0.00 0.00 99 1012.3
20260905130423 61 97 2.0 3.0 0.00 0.00 0.00 99 1012.0
20260905125923 60 101 1.0 4.0 0.00 0.00 0.00 99 1012.4
20260905125418 60 89 1.0 2.0 0.00 0.00 0.00 99 1012.1
20260905124913 58 29 2.0 2.0 0.00 0.00 0.00 99 1012.5
20260905124410 58 85 1.0 2.0 0.00 0.00 0.00 99 1012.8
20260905123910 58 89 0.0 2.0 0.00 0.00 0.00 99 1012.6
20260905123407 57 98 2.0 3.0 0.00 0.00 0.00 99 1012.8
20260905122902 57 147 1.0 3.0 0.00 0.00 0.00 99 1013.0
20260905122401 57 27 2.0 3.0 0.00 0.00 0.00 99 1012.9
20260905121856 57 69 2.0 2.0 0.00 0.00 0.00 99 1012.8
20260905121353 57 39 1.0 2.0 0.00 0.00 0.00 99 1012.8
20260905120851 57 99 1.0 2.0 0.00 0.00 0.00 99 1012.8
20260905120346 56 85 3.0 3.0 0.00 0.00 0.00 99 1012.6
20260905115841 56 87 1.0 2.0 0.00 0.00 0.00 99 1012.5
20260905115340 56 81 2.0 3.0 0.00 0.00 0.00 99 1012.4
20260905114835 56 29 0.0 1.0 0.00 0.00 0.00 99 1012.2
20260905114334 56 66 2.0 2.0 0.00 0.00 0.00 99 1012.3
20260905113833 55 107 1.0 2.0 0.00 0.00 0.00 99 1012.1
20260905113329 55 55 0.0 1.0 0.00 0.00 0.00 99 1012.2
20260905112825 55 49 2.0 2.0 0.00 0.00 0.00 99 1012.0
20260905112319 55 27 2.0 2.0 0.00 0.00 0.00 99 1012.1
20260905111815 55 51 1.0 2.0 0.00 0.00 0.00 99 1012.2
20260905111315 55 82 2.0 2.0 0.00 0.00 0.00 99 1012.1
20260905110814 55 356 1.0 2.0 0.00 0.00 0.00 99 1012.0
20260905110308 55 22 2.0 2.0 0.00 0.00 0.00 99 1011.8
20260905105804 55 41 1.0 2.0 0.00 0.00 0.00 99 1012.0
20260905105306 55 68 2.0 3.0 0.00 0.00 0.00 99 1011.9
20260905104757 55 37 2.0 2.0 0.00 0.00 0.00 99 1012.0
20260905104254 55 39 2.0 2.0 0.00 0.00 0.00 99 1011.7
20260905103753 55 70 2.0 2.0 0.00 0.00 0.00 99 1011.7
20260905103249 55 56 2.0 3.0 0.00 0.00 0.00 99 1011.6
20260905102744 55 47 2.0 2.0 0.00 0.00 0.00 99 1011.8
20260905102241 55 53 2.0 2.0 0.00 0.00 0.00 99 1011.3
20260905101740 55 63 0.0 2.0 0.00 0.00 0.00 99 1011.6
20260905101238 55 77 0.0 1.0 0.00 0.00 0.00 99 1011.4
20260905100734 55 76 0.0 2.0 0.00 0.00 0.00 99 1011.5
20260905100230 55 30 2.0 2.0 0.00 0.00 0.00 99 1011.4
20260905095729 55 52 1.0 2.0 0.00 0.00 0.00 99 1011.4
20260905095229 55 89 1.0 2.0 0.00 0.00 0.00 99 1011.2
20260905094724 55 48 2.0 3.0 0.00 0.00 0.00 99 1011.3
20260905094219 55 53 1.0 2.0 0.00 0.00 0.00 99 1011.2
20260905093713 56 47 2.0 2.0 0.00 0.00 0.00 99 1010.9
20260905093209 56 62 2.0 2.0 0.00 0.00 0.00 99 1011.2
20260905092704 56 67 2.0 2.0 0.00 0.00 0.00 99 1011.2
20260905092200 56 50 2.0 2.0 0.00 0.00 0.00 99 1011.2
20260905091659 56 24 0.0 2.0 0.00 0.00 0.00 99 1011.3
20260905091153 56 50 0.0 2.0 0.00 0.00 0.00 99 1011.2
20260905090648 56 55 2.0 2.0 0.00 0.00 0.00 99 1011.2
20260905090144 56 76 2.0 2.0 0.00 0.00 0.00 99 1011.2
20260905085642 56 40 2.0 2.0 0.00 0.00 0.00 99 1011.5
20260905085137 56 41 1.0 2.0 0.00 0.00 0.00 99 1011.2
20260905084636 56 32 0.0 2.0 0.00 0.00 0.00 99 1011.2
20260905084131 56 76 0.0 2.0 0.00 0.00 0.00 99 1011.3
20260905083626 56 37 2.0 2.0 0.00 0.00 0.00 99 1011.5
20260905083123 56 86 1.0 2.0 0.00 0.00 0.00 99 1011.5
20260905082618 56 72 0.0 1.0 0.00 0.00 0.00 99 1011.5
20260905082114 56 49 0.0 1.0 0.00 0.00 0.00 99 1011.4
20260905081613 56 45 0.0 2.0 0.00 0.00 0.00 99 1011.7
20260905081108 57 34 0.0 2.0 0.00 0.00 0.00 99 1011.4
20260905080603 57 46 2.0 2.0 0.00 0.00 0.00 99 1011.4
20260905080057 57 30 2.0 2.0 0.00 0.00 0.00 99 1011.4
20260905075550 57 41 1.0 2.0 0.00 0.00 0.00 99 1011.6
20260905075045 57 75 1.0 2.0 0.00 0.00 0.00 99 1011.7
20260905074544 57 71 0.0 1.0 0.00 0.00 0.00 99 1011.6
20260905074040 57 22 0.0 1.0 0.00 0.00 0.00 99 1011.6
20260905073535 57 31 1.0 2.0 0.00 0.00 0.00 99 1011.6
20260905073031 57 39 0.0 2.0 0.00 0.00 0.00 99 1011.6
20260905072530 58 89 1.0 2.0 0.00 0.00 0.00 99 1011.4
20260905072026 58 40 0.0 1.0 0.00 0.00 0.00 99 1011.7
20260905071523 58 23 1.0 2.0 0.00 0.00 0.00 99 1011.7
20260905071023 58 34 1.0 2.0 0.00 0.00 0.00 99 1011.7
20260905070518 58 86 0.0 2.0 0.00 0.00 0.00 99 1011.7
20260905070014 58 27 1.0 2.0 0.00 0.00 0.00 99 1011.9
20260905065511 58 45 2.0 2.0 0.00 0.00 0.00 99 1011.8
20260905065007 58 65 1.0 3.0 0.00 0.00 0.00 99 1011.9
20260905064502 58 25 1.0 1.0 0.00 0.00 0.00 99 1011.8
20260905063956 58 68 1.0 3.0 0.00 0.00 0.00 99 1011.9
20260905063450 58 51 0.0 1.0 0.00 0.00 0.00 99 1011.8
20260905062947 58 63 0.0 2.0 0.00 0.00 0.00 99 1012.0
20260905062441 58 28 2.0 2.0 0.00 0.00 0.00 99 1012.1
20260905061937 58 45 2.0 2.0 0.00 0.00 0.00 99 1012.0
20260905061436 58 49 0.0 2.0 0.00 0.00 0.00 99 1012.1
20260905060935 58 44 1.0 2.0 0.00 0.00 0.00 99 1012.1
20260905060432 58 50 0.0 1.0 0.00 0.00 0.00 99 1012.1
20260905055931 58 50 0.0 1.0 0.00 0.00 0.00 99 1012.1
20260905055426 58 44 0.0 1.0 0.00 0.00 0.00 99 1012.2
20260905054925 58 57 1.0 2.0 0.00 0.00 0.00 99 1012.2
20260905054422 58 104 2.0 2.0 0.00 0.00 0.00 99 1012.2
20260905053921 58 52 2.0 2.0 0.00 0.00 0.00 99 1012.1
20260905053416 58 44 0.0 1.0 0.00 0.00 0.00 99 1012.4
20260905052912 58 35 0.0 2.0 0.00 0.00 0.00 99 1012.4
20260905052411 59 87 0.0 2.0 0.00 0.00 0.00 99 1012.3
20260905051911 59 44 0.0 2.0 0.00 0.00 0.00 99 1012.5
20260905051407 59 43 0.0 2.0 0.00 0.00 0.00 99 1012.5
20260905050904 59 39 0.0 1.0 0.00 0.00 0.00 99 1012.5
20260905050400 59 50 1.0 2.0 0.00 0.00 0.00 99 1012.5
20260905045855 60 74 2.0 2.0 0.00 0.00 0.00 99 1012.6
20260905045350 60 35 1.0 1.0 0.00 0.00 0.00 99 1012.4
20260905044845 60 13 0.0 1.0 0.00 0.00 0.00 99 1012.6
20260905044340 60 314 0.0 1.0 0.00 0.00 0.00 99 1012.6
20260905043839 60 40 0.0 1.0 0.00 0.00 0.00 99 1012.7
20260905043333 60 323 0.0 1.0 0.00 0.00 0.00 99 1012.7
20260905042828 60 293 0.0 1.0 0.00 0.00 0.00 99 1012.8
20260905042323 60 32 0.0 0.0 0.00 0.00 0.00 99 1012.6
20260905041818 61 60 0.0 0.0 0.00 0.00 0.00 99 1012.7
20260905041314 61 40 1.0 1.0 0.00 0.00 0.00 99 1012.6
20260905040808 61 326 0.0 1.0 0.00 0.00 0.00 99 1012.6
20260905040307 61 352 0.0 1.0 0.00 0.00 0.00 99 1012.6
20260905035802 61 326 0.0 1.0 0.00 0.17 0.17 99 1012.6
20260905035258 61 37 0.0 0.0 0.00 0.17 0.17 99 1012.6
20260905034755 62 35 1.0 2.0 0.00 0.17 0.17 99 1012.5
20260905034255 62 1 1.0 1.0 0.00 0.17 0.17 99 1012.6
20260905033753 62 45 1.0 2.0 0.00 0.17 0.17 99 1012.6
20260905033249 62 31 0.0 1.0 0.00 0.17 0.17 99 1012.4
20260905032748 62 0 0.0 1.0 0.00 0.17 0.17 98 1012.6
20260905032244 63 75 2.0 2.0 0.00 0.17 0.17 98 1012.4
20260905031739 63 42 1.0 1.0 0.00 0.17 0.17 98 1012.5
20260905031235 63 32 0.0 1.0 0.00 0.17 0.17 98 1012.3
20260905030734 63 35 0.0 1.0 0.00 0.17 0.17 98 1012.3
20260905030230 63 38 0.0 1.0 0.00 0.17 0.17 98 1012.5
20260905025724 63 25 1.0 1.0 0.00 0.17 0.17 98 1012.4
20260905025220 63 35 1.0 2.0 0.00 0.17 0.17 97 1012.3
20260905024715 64 43 1.0 2.0 0.00 0.17 0.17 97 1012.4
20260905024211 64 54 2.0 2.0 0.00 0.17 0.17 97 1012.5
20260905023706 64 37 0.0 1.0 0.00 0.17 0.17 97 1012.5
20260905023206 64 0 0.0 1.0 0.00 0.17 0.17 97 1012.4
20260905022705 65 50 1.0 1.0 0.00 0.17 0.17 96 1012.4
20260905022201 65 336 0.0 0.0 0.00 0.17 0.17 95 1012.3
20260905021655 65 309 0.0 0.0 0.00 0.17 0.17 95 1012.3
20260905021150 65 309 0.0 0.0 0.00 0.17 0.17 96 1012.4
20260905020645 65 309 0.0 0.0 0.00 0.17 0.17 96 1012.3
20260905020141 65 309 0.0 0.0 0.00 0.17 0.17 96 1012.3
20260905015639 65 50 0.0 1.0 0.00 0.17 0.17 97 1012.7
20260905015133 65 37 0.0 0.0 0.00 0.17 0.17 97 1012.7
20260905014627 65 13 0.0 1.0 0.00 0.17 0.17 97 1012.6
20260905014122 65 33 1.0 2.0 0.00 0.17 0.17 97 1012.7
20260905013619 66 62 1.0 2.0 0.00 0.17 0.17 97 1012.9
20260905013114 66 50 0.0 1.0 0.00 0.17 0.17 97 1012.9
20260905012609 66 42 1.0 1.0 0.00 0.17 0.17 97 1012.7
20260905012105 66 0 0.0 1.0 0.00 0.17 0.17 96 1012.9
20260905011600 66 316 0.0 1.0 0.00 0.17 0.17 96 1012.8
20260905011057 66 0 0.0 1.0 0.00 0.17 0.17 96 1012.6
20260905010555 66 37 0.0 0.0 0.00 0.17 0.17 96 1012.6
20260905010052 66 333 0.0 1.0 0.00 0.17 0.17 96 1012.7
20260905005548 66 29 0.0 1.0 0.00 0.17 0.17 96 1012.5
20260905005043 66 25 1.0 1.0 0.00 0.17 0.17 97 1012.3
20260905004538 66 49 0.0 0.0 0.00 0.17 0.17 97 1012.4
20260905004034 66 50 0.0 1.0 0.00 0.17 0.17 96 1012.2
20260905003529 66 37 0.0 1.0 0.00 0.17 0.17 96 1012.3
20260905003025 67 8 2.0 2.0 0.00 0.17 0.17 97 1012.3
20260905002520 67 103 0.0 1.0 0.00 0.17 0.17 96 1012.3
20260905002019 67 79 2.0 2.0 0.00 0.17 0.17 96 1012.4
20260905001514 67 37 0.0 1.0 0.00 0.17 0.17 95 1012.2
20260905001008 67 326 0.0 2.0 0.00 0.17 0.17 96 1012.2
20260905000504 67 66 0.0 0.0 0.00 0.17 0.17 94 1012.1
20260905000000 67 71 0.0 1.0 0.00 0.17 0.17 94 1011.8
20260904235455 67 50 0.0 2.0 0.00 0.17 0.17 94 1011.9
20260904234949 67 55 0.0 0.0 0.00 0.17 0.17 94 1012.0
20260904234443 67 50 0.0 1.0 0.00 0.17 0.17 94 1011.9
20260904233940 67 40 0.0 1.0 0.00 0.17 0.17 94 1012.0
20260904233434 68 44 1.0 1.0 0.00 0.17 0.17 94 1012.1
20260904232931 68 299 0.0 2.0 0.00 0.17 0.17 93 1012.0
20260904232427 68 22 0.0 1.0 0.00 0.17 0.17 93 1011.8
20260904231924 68 35 0.0 1.0 0.00 0.17 0.17 92 1012.0
20260904231423 68 37 0.0 0.0 0.00 0.17 0.17 92 1012.1
20260904230918 68 37 0.0 0.0 0.00 0.17 0.17 91 1012.1